Weather Roundup
Issued by NWS

Home | Current Version | Previous Version | Text Only | Print | Product List | Glossary On
Versions: 1 2 3 4 5 6 7 8 9 10 11 12 13 14 15 16 17 18 19 20 21 22 23 24 25 26 27 28 29 30 31 32 33 34 35 36 37 38 39 40 41 42 43 44 45 46 47 48 49 50
666
NZUS93 KARX 211759
HRRWXR

CURRENT HOURLY OBSERVATIONS ACROSS
MUCH OF THE UPPER MISSISSIPPI VALLEY
NATIONAL WEATHER SERVICE LA CROSSE WI
100 PM CDT THU SEP 21 2017


...SOUTHEAST MINNESOTA...


CITY           SKY/WX    TMP DP  RH WIND       PRES   REMARKS
ROCHESTER      MOSUNNY   77  67  71 SE12      29.94F
ROCHESTER/MAYO FAIR      76  65  70 SE12      29.94F
WINONA           N/A    N/A N/A N/A MISG        N/A
AUSTIN         MOSUNNY   79  66  65 S9        29.92F
ALBERT LEA     SUNNY     81  70  69 SE13      29.91F
DODGE CENTER   SUNNY     77  64  65 SE10G17   29.93F
PRESTON        MOSUNNY   78  65  63 S10       29.95F
OWATONNA       SUNNY     77  66  69 SE13      29.90F
FARIBAULT      CLOUDY    75  66  73 SE13      29.91F
$$

...ELSEWHERE IN MINNESOTA...


CITY           SKY/WX    TMP DP  RH WIND       PRES   REMARKS
MINNEAPOLIS    MOSUNNY   76  62  62 SE13      29.91F
INTNL FALLS    SUNNY     68  47  46 S9        29.93F
DULUTH         SUNNY     67  54  63 E14       29.97F
RED WING       MOSUNNY   77  59  53 SE14      29.91F
REDWOOD FALLS  SUNNY     78  63  59 SE15G24   29.83F
MANKATO        SUNNY     76  67  73 SE13      29.88F
WORTHINGTON    SUNNY     78  67  68 SE16G24   29.83F
FAIRMONT       SUNNY     77  67  71 S17       29.87F
$$

...SOUTHWEST WISCONSIN...


CITY           SKY/WX    TMP DP  RH WIND       PRES   REMARKS
LA CROSSE      NOT AVBL
PRAIRIE DU CHI NOT AVBL
BOSCOBEL       CLOUDY    85  63  47 VRB7      29.97F
LONE ROCK      NOT AVBL
PLATTEVILLE    CLOUDY    82  64  55 SE9       30.00F
FORT MC COY    CLOUDY    76  67  71 SE3       29.97F
MAUSTON-NEW LI CLOUDY    74  70  86 S7        29.99F
VIROQUA        FAIR      78  67  70 S7        30.00S
WIS DELLS      CLOUDY    79  67  66 SE7       30.01F
$$

...ELSEWHERE IN WISCONSIN...


CITY           SKY/WX    TMP DP  RH WIND       PRES   REMARKS
MILWAUKEE      CLOUDY    80  69  69 SE5       30.03S
MADISON        PTSUNNY   80  70  71 SE6       30.01F
GREEN BAY      CLOUDY    74  69  85 CALM      30.03F
EAU CLAIRE     NOT AVBL
BLACK RVR FLS  MOCLDY    78  69  72 SE7       29.97F
MEDFORD        CLOUDY    71  65  81 S9        30.02S
WAUSAU         CLOUDY    75  67  76 SE10      30.00F
WIS RAPIDS     CLOUDY    71  69  93 SE8       30.02F FOG
MARSHFIELD     CLOUDY    71  66  84 SE12      30.01F HAZE
RICE LAKE      SUNNY     75  58  55 SE12G17   29.98F
$$

...NORTHEAST IOWA...


CITY           SKY/WX    TMP DP  RH WIND       PRES   REMARKS
WATERLOO       SUNNY     85  61  44 S16G25    29.91F
DUBUQUE        CLOUDY    78  64  61 SE9       29.99F
DECORAH        SUNNY     82  64  54 S12G18    29.95F
MASON CITY     MOSUNNY   82  68  62 S13       29.92F
CHARLES CITY   SUNNY     82  66  57 S12G20    29.93F
OELWEIN        SUNNY     86  61  42 S20G26    29.94F
$$

...ELSEWHERE IN IOWA...


CITY           SKY/WX    TMP DP  RH WIND       PRES   REMARKS
DES MOINES     MOSUNNY   83  68  60 SE17G26   29.89F
IOWA CITY      PTSUNNY   89  61  38 S9        29.92F
FORT DODGE     PTSUNNY   82  71  69 S20G28    29.87F
MARSHALLTOWN   SUNNY     86  66  51 S20G26    29.91F
CEDAR RAPIDS   MOSUNNY   91  59  33 S17G25    29.91F HX  90
$$

...NORTHERN ILLINOIS...


CITY           SKY/WX    TMP DP  RH WIND       PRES   REMARKS
CHICAGO-OHARE  PTSUNNY   92  61  35 S5        30.00F HX  92
CHICAGO-MIDWAY PTSUNNY   92  59  33 SW7       30.01F HX  91
MOLINE         CLOUDY    81  63  54 E12       29.95R
ROCKFORD       CLOUDY    85  67  54 SW6       30.02F
PEORIA         PTSUNNY   86  62  44 SE6       30.01F
$$

NOTE: "FAIR" INDICATES FEW OR NO CLOUDS BELOW 12,000 FEET WITH NO
SIGNIFICANT WEATHER AND/OR OBSTRUCTIONS TO VISIBILITY. WIND
SPEEDS ARE IN MILES-PER-HOUR.




USA.gov is the U.S. government's official web portal to all federal, state and local government web resources and services.